Torna al catalogo

STARLINK-34786

AttivoComunicazioniSSO
NORAD 65391·PAYLOAD·🇺🇸 United States

Lanciato Aug 30, 2025 da Vandenberg Space Force Base

Loading…

Prossimi Passaggi (prossime 24 ore)

TLE

AggiornatoSource: CelesTrak SupGP

Epoca: Sep 14, 2026, 23:02 UTC

1 65391C 25191N   26257.96020833  .00071386  00000+0  22154-2 0  2572
2 65391  97.2847 124.0462 0001415  93.0059  74.7519 15.33411267    16

Traccia STARLINK-34786 in tempo reale con AllMySat

Download on the App Store